This is the latest recevied weather packets stored in our database for station/object IK3SVW-3. If no packets are shown the sender has not sent any weather packets the latest 10 day(s).
| Time | Temp. | Humidity | Pressure | Rain* | Wind** | Luminosity | Snow |
|---|---|---|---|---|---|---|---|
| 1778155666 | 21.11° C | 46% | 1010 hPa | 0 mm | - | - | - |
| 1778155486 | 21.11° C | 45% | 1011 hPa | 0 mm | - | - | - |
| 1778154709 | 21.11° C | 44% | 1011 hPa | 0 mm | - | - | - |
| 1778152068 | 20.56° C | 49% | 1011 hPa | 0 mm | - | - | - |
| 1778151590 | 20.56° C | 49% | 1012 hPa | 0 mm | - | - | - |
| 1778150928 | 20° C | 51% | 1012 hPa | 0 mm | - | - | - |
| 1778150266 | 20° C | 50% | 1012 hPa | 0 mm | - | - | - |
| 1778149606 | 19.44° C | 52% | 1012 hPa | 0 mm | - | - | - |
| 1778148950 | 18.89° C | 52% | 1012 hPa | 0 mm | - | - | - |
| 1778148287 | 18.89° C | 55% | 1012 hPa | 0 mm | - | - | - |
| 1778147993 | 19.44° C | 56% | 1012 hPa | 0 mm | - | - | - |
| 1778147329 | 19.44° C | 55% | 1012 hPa | 0 mm | - | - | - |
| 1778144685 | 18.89° C | 59% | 1012 hPa | 0 mm | - | - | - |
| 1778143939 | 18.33° C | 66% | 1012 hPa | 0 mm | - | - | - |
| 1778143907 | 18.33° C | 66% | 1012 hPa | 0 mm | - | - | - |
| 1778141931 | 18.89° C | 69% | 1012 hPa | 0 mm | - | - | - |
| 1778141086 | 18.89° C | 69% | 1011 hPa | 0 mm | - | - | - |
| 1778140366 | 18.89° C | 72% | 1011 hPa | 0 mm | - | - | - |
| 1778140130 | 18.89° C | 74% | 1012 hPa | 0 mm | - | - | - |
| 1778139467 | 18.89° C | 74% | 1012 hPa | 0 mm | - | - | - |
| 1778138806 | 17.78° C | 77% | 1011 hPa | 0 mm | - | - | - |
| 1778138146 | 17.22° C | 81% | 1011 hPa | 0 mm | - | - | - |
| 1778137485 | 16.67° C | 82% | 1011 hPa | 0 mm | - | - | - |
| 1778135874 | 16.67° C | 85% | 1011 hPa | 0 mm | - | - | - |
| 1778135212 | 16.67° C | 86% | 1011 hPa | 0 mm | - | - | - |
* Rain latest hour (hover to see other rain measurements)
** Current wind speed in m/s (hover to see current wind gust speed)